This is the latest recevied weather packets stored in our database for station/object AJ1L. If no packets are shown the sender has not sent any weather packets the latest 10 day(s).
| Time | Temp. | Humidity | Pressure | Rain* | Wind** | Luminosity | Snow |
|---|---|---|---|---|---|---|---|
| 1777885646 | 6.67° C | 59% | 1010.8 hPa | 0 mm | - | - | - |
| 1777884647 | 6.67° C | 59% | 1010.8 hPa | 0 mm | - | - | - |
| 1777883646 | 6.67° C | 59% | 1010.7 hPa | 0 mm | - | - | - |
| 1777882647 | 6.67° C | 59% | 1010.8 hPa | 0 mm | - | - | - |
| 1777881646 | 6.67° C | 60% | 1010.7 hPa | 0 mm | - | - | - |
| 1777880646 | 6.67° C | 59% | 1010.6 hPa | 0 mm | - | - | - |
| 1777878646 | 6.67° C | 58% | 1010.7 hPa | 0 mm | - | - | - |
| 1777877646 | 6.67° C | 58% | 1010.6 hPa | 0 mm | - | - | - |
| 1777875646 | 6.11° C | 58% | 1010.5 hPa | 0 mm | - | - | - |
| 1777874646 | 5.56° C | 59% | 1010.6 hPa | 0 mm | - | - | - |
| 1777873646 | 5.56° C | 60% | 1010.4 hPa | 0 mm | - | - | - |
| 1777872646 | 5.56° C | 61% | 1010.5 hPa | 0 mm | - | - | - |
| 1777871646 | 5° C | 61% | 1010.4 hPa | 0 mm | - | - | - |
| 1777870646 | 5° C | 61% | 1010.4 hPa | 0 mm | - | - | - |
| 1777869646 | 5° C | 61% | 1010.4 hPa | 0 mm | - | - | - |
| 1777868646 | 5° C | 60% | 1010.4 hPa | 0 mm | - | - | - |
| 1777867646 | 5° C | 59% | 1010.3 hPa | 0 mm | - | - | - |
| 1777866646 | 5.56° C | 58% | 1010.1 hPa | 0 mm | - | - | - |
| 1777865646 | 5.56° C | 57% | 1010.1 hPa | 0 mm | - | - | - |
| 1777864646 | 5.56° C | 56% | 1010 hPa | 0 mm | - | - | - |
| 1777863646 | 6.11° C | 55% | 1010 hPa | 0 mm | - | - | - |
| 1777862647 | 6.67° C | 53% | 1009.9 hPa | 0 mm | - | - | - |
| 1777860646 | 6.11° C | 53% | 1009.7 hPa | 0 mm | - | - | - |
| 1777859646 | 6.67° C | 54% | 1009.7 hPa | 0 mm | - | - | - |
| 1777858646 | 7.22° C | 52% | 1009.5 hPa | 0 mm | - | - | - |
* Rain latest hour (hover to see other rain measurements)
** Current wind speed in m/s (hover to see current wind gust speed)